Location: Kingsnorth
(51.4333°N, 0.6000°E)
Time: 14:13:56
(UTC+00:00)

Daily predictions for brighter satellites

Satellite Brightness Start Highest point End
(mag) Time Altitude Azimuth Time Altitude Azimuth Time Altitude Azimuth
Cosmos 1867 3.9 20:54:00 10° NW 20:59:28 63° NE 21:04:52 10° SE
Cosmos 2084 Rocket 3.3 20:58:41 10° NW 21:02:34 80° SW 21:06:37 10° SE
X-37B 2.3 21:02:12 10° WSW 21:04:03 16° SSW 21:05:55 10° SSE
Helios 1A Rocket 3.0 21:03:38 10° SSE 21:07:42 68° ENE 21:11:48 10° N
IRAS Rocket 4.3 21:04:20 10° NNE 21:09:59 81° ESE 21:15:32 10° SSW
Cosmos 2154 Rocket 4.0 21:03:57 10° N 21:10:13 78° E 21:16:25 10° SSE
Cosmos 1455 4.1 21:09:30 10° NNW 21:12:47 28° W 21:16:05 10° SSW
Ariane Rocket 4.1 21:11:54 10° S 21:16:44 43° W 21:21:36 10° NNW
Cosmos 1328 4.3 21:14:21 10° SSE 21:18:09 44° E 21:21:59 10° NNE
Cosmos 2082 Rocket 2.9 21:14:06 10° S 21:19:14 36° ESE 21:24:23 10° NE
CZ-2C R/B 4.1 21:16:00 10° NNE 21:20:23 45° E 21:24:40 10° S
SPOT 3 Rocket 4.1 21:16:46 10° S 21:21:53 59° WSW 21:27:04 10° NNW
Cosmos 2228 3.2 21:18:04 10° NNW 21:22:18 69° W 21:26:31 10° S
Cosmos 1892 Rocket 4.2 21:21:24 10° SSE 21:25:28 39° E 21:29:32 10° NNE
Cosmos 2360 Rocket 4.2 21:22:51 10° NNW 21:27:11 21° NE 21:31:28 10° E
Cosmos 2058 Rocket 3.6 21:26:06 10° N 21:30:23 46° ENE 21:34:19 12° SSE
USA 234 3.8 21:24:24 10° E 21:30:50 61° NNE 21:37:17 10° WNW
Resurs 01 Rocket 3.9 21:28:48 10° SW 21:32:09 21° W 21:35:32 10° NW
Meteor 1-21 Rocket 4.3 21:32:44 10° S 21:38:22 89° WNW 21:44:09 10° NNE
CZ-4B R/B 3.7 21:36:27 10° NNW 21:38:45 21° WNW 21:41:01 10° WSW
Cosmos 1331 Rocket 4.2 21:36:39 10° SSW 21:41:58 81° WNW 21:47:18 10° NNE
SPOT 5 3.2 21:38:27 10° S 21:42:42 52° W 21:46:57 10° NNW
Terra 2.0 21:39:43 10° S 21:44:27 75° WSW 21:49:15 10° NNW
SJ 16-02 3.2 21:41:46 10° N 21:45:16 22° NE 21:48:43 10° ESE
Spot 2 Rocket 4.1 21:42:07 10° S 21:47:06 53° W 21:52:07 10° NNW
Cosmos 1892 3.3 21:44:17 14° SSE 21:47:10 39° E 21:50:43 10° NNE
Cosmos 2366 rocket 4.4 21:41:06 10° N 21:47:19 53° ENE 21:52:47 14° SSE
FALCON 9 DEB 3.0 21:44:09 10° WNW 21:47:24 66° SSW 21:50:08 14° ESE
Cosmos 2218 Rocket 4.4 21:45:59 10° N 21:52:19 58° ENE 21:57:46 14° SSE
ASTEX 1 3.8 21:49:48 10° NNE 21:54:41 50° E 21:58:45 14° SSE
Cosmos 1606 Rocket 4.3 21:51:35 10° NNW 21:55:46 49° W 21:59:58 10° SSW
USA 276 2.1 21:54:31 10° W 21:57:29 55° SSW 21:59:52 15° ESE
Cosmos 1697 Rocket 3.9 21:55:14 10° NW 22:00:12 33° WSW 22:05:08 10° SSW
Cosmos 1980 Rocket 2.6 21:55:05 10° NW 22:00:41 59° WSW 22:05:29 14° S
GP-B 3.3 21:57:10 10° N 22:01:35 58° E 22:05:00 16° SSE
SL-16 R/B 2.8 21:56:33 10° NNW 22:02:07 51° NE 22:07:09 12° SE
ARIANE 5 R/B 2.9 21:58:45 13° S 22:02:40 66° WSW 22:07:05 10° NNW
Cosmos 2219 Rocket 4.4 21:59:26 10° NNW 22:03:32 20° NNE 22:07:37 10° E
Cosmos 2369 4.3 22:01:09 10° NW 22:06:41 49° WSW 22:11:30 13° S
ERS-1 Rocket 4.0 22:02:45 10° SSW 22:07:29 41° W 22:12:15 10° NNW
Cosmos 2341 Rocket 4.1 22:03:44 10° NNW 22:10:06 83° W 22:15:36 14° S
ATLAS 5 CENTAUR R/B 1.9 22:08:26 15° S 22:11:05 34° ESE 22:14:53 10° ENE
Cosmos 1302 Rocket 4.0 22:08:01 10° SSW 22:13:14 86° WNW 22:18:28 10° NNE
COSMOS 2406 3.5 22:10:36 10° SW 22:16:22 74° WNW 22:22:09 10° NNE
Cosmos 1503 Rocket 4.3 22:13:44 10° NNW 22:19:02 61° ENE 22:23:03 17° SE
In-Cosmos 22 Rocket 4.2 22:14:45 14° S 22:19:26 66° E 22:24:48 10° NNE
Cosmos 968 Rocket 4.4 22:17:28 10° NW 22:22:21 41° WSW 22:26:32 14° S
Cosmos 1408 2.7 22:19:29 14° SSW 22:22:24 68° WNW 22:25:52 10° N
Okean 1-7 Rocket 3.7 22:19:49 18° S 22:23:01 60° E 22:27:28 10° NNE
Cosmos 1869 3.2 22:20:21 10° N 22:24:16 79° E 22:26:47 21° SSE
Cosmos 1833 Rocket 4.0 22:21:49 10° WSW 22:27:09 42° NW 22:32:31 10° NNE
Meteor 1-27 4.2 22:25:14 10° NNW 22:30:50 82° W 22:35:01 18° S
Cosmos 1825 2.1 22:28:50 21° S 22:31:13 69° E 22:34:57 10° NNE
Cosmos 1812 Rocket 3.8 22:31:54 10° N 22:36:22 62° ENE 22:39:08 22° SSE
Cosmos 2322 Rocket 2.5 22:31:17 10° NNW 22:36:57 64° NE 22:41:25 17° SE
USA 267 3.6 22:31:27 10° ENE 22:37:37 42° SE 22:43:45 10° SSW
Spot 4 4.0 22:35:11 20° SSE 22:38:27 64° ENE 22:43:13 10° N
Cosmos 2181 Rocket 4.0 22:34:39 14° S 22:40:05 89° WNW 22:46:24 10° N
Cosmos-2242 3.3 22:36:28 10° N 22:40:39 54° ENE 22:43:11 22° SE
BREEZE-M DEB (TANK) 3.4 22:38:44 10° W 22:41:39 68° S 22:51:42 10° ESE
Cosmos 1821 Rocket 4.2 22:35:45 10° N 22:41:58 65° ENE 22:46:22 20° SSE
Cosmos 1932 4.4 22:36:45 10° SW 22:42:58 81° SE 22:49:22 10° NE
Cosmos 2278 4.4 22:43:33 10° NW 22:48:56 44° WSW 22:52:47 18° S
Cosmos 1602 Rocket 3.6 22:48:54 23° S 22:51:27 67° E 22:55:46 10° NNE
SAR-Lupe-4 4.0 22:49:08 10° N 22:52:40 59° WNW 22:55:20 17° SSW
Cosmos 2333 Rocket 3.3 22:49:26 10° NNW 22:54:55 42° NE 23:00:22 10° ESE
Cosmos 2082 Rocket 3.1 22:57:39 10° SW 23:03:12 50° NW 23:08:44 10° NNE
ALOS 2 2.7 23:00:42 24° SSE 23:03:18 68° ENE 23:07:41 10° N
Gbstr 26 Del rocket 4.0 23:05:10 25° SSE 23:05:50 26° SE 23:09:55 10° E
Nadezhda 3 Rocket 4.1 23:02:12 21° SSE 23:06:18 62° E 23:12:23 10° NNE
Cosmos 1340 Rocket 4.1 23:05:53 21° SE 23:07:25 28° E 23:10:50 10° NNE
Cosmos 1606 2.7 23:05:34 10° N 23:09:26 77° E 23:11:18 29° SSE
Cosmos 2360 Rocket 2.3 23:06:27 10° NNW 23:12:10 75° ENE 23:16:15 20° SE
USA 234 3.2 23:07:11 10° SE 23:13:46 80° SSW 23:20:22 10° WNW
Cosmos 1626 Rocket 4.2 23:10:58 16° SSW 23:14:12 52° WNW 23:18:29 10° N
Cosmos 1633 2.5 23:12:29 27° SSW 23:14:12 73° WNW 23:17:40 10° N
BREEZE-M DEB (TANK) 3.7 23:03:57 10° WSW 23:14:38 59° SSE 23:18:02 10° E
Cosmos 1953 Rocket 4.4 23:15:54 23° SE 23:17:59 37° E 23:22:04 10° NNE
Terra 4.3 23:21:36 10° WSW 23:23:03 11° W 23:24:30 10° WNW
SJ 16-02 1.6 23:19:49 10° NNW 23:24:12 59° WSW 23:26:24 27° S
H-2A R/B 3.5 23:20:31 10° NNE 23:24:44 71° ESE 23:26:52 28° S
Cosmos 1825 Rocket 3.6 23:24:44 28° S 23:26:55 68° E 23:31:15 10° NNE
Cosmos 2058 3.0 23:28:03 29° S 23:30:04 68° E 23:34:15 10° NNE
Cosmos 2237 4.4 23:25:42 10° NW 23:31:20 59° WSW 23:34:40 24° S
USA 276 4.0 23:30:32 10° W 23:31:40 16° WSW 23:31:40 16° WSW
USA 290 4.4 23:33:45 10° N 23:36:23 22° NE 23:38:48 11° ESE
Cosmos 2237 Rocket 4.3 23:32:35 10° NNW 23:37:07 24° NE 23:41:39 10° E
Cosmos 2221 3.0 23:33:34 10° N 23:37:52 55° ENE 23:40:15 25° SE
Meteor 2-2 Rocket 4.4 23:34:31 10° NNW 23:40:34 82° W 23:44:23 24° S
COSMOS 2428 3.6 23:36:01 10° NNW 23:41:33 46° NE 23:47:02 10° SE
COSMOS 2455 4.5 23:40:05 10° NNW 23:45:31 33° NNE 23:50:55 10° E
Cosmos 1842 Rocket 4.2 23:41:22 10° N 23:45:46 51° ENE 23:48:21 23° SE
SL-16 R/B 3.1 23:40:59 10° NW 23:46:03 35° WSW 23:49:00 21° SSW
ERS-2 2.3 23:42:41 10° NNE 23:46:14 54° ESE 23:47:29 34° SSE
ISS -1.7 23:47:44 15° ESE 23:47:44 15° ESE 23:48:50 10° E
ADEOS Rocket 3.7 23:42:57 22° S 23:48:03 65° W 23:55:50 10° NNW
Cosmos 2219 Rocket 2.5 23:42:55 10° NNW 23:48:36 66° ENE 23:53:12 16° SE
COSMOS 2487 3.7 23:49:36 21° ESE 23:49:56 22° ESE 23:52:23 10° NE
SL-4 R/B 1.9 23:49:35 36° SSW 23:50:26 44° SSE 23:53:59 10° E
Cosmos 1934 Rocket 4.0 23:46:11 10° NNW 23:52:18 80° W 23:56:11 24° S
SL-27 R/B 3.5 23:53:43 26° SE 23:54:20 28° ESE 23:57:13 10° NE
ATLAS 5 CENTAUR R/B 2.7 23:51:48 10° WSW 23:55:30 40° NNW 23:59:46 10° NE
